Location: Oshawa
(43.9000°N, 78.8670°W)
Time: 17:04:58
(UTC-04:00)

ITAMSAT 1 - Visible Passes

Search period start: 01 September 2014 00:00
Search period end: 11 September 2014 00:00
Orbit: 784 x 799 km, 98.7° (Epoch: 31 August)

Date Brightness Start Highest point End Pass type
(mag) Time Alt. Az. Time Alt. Az. Time Alt. Az.
01 Sep 10.2 02:08:05 10° ENE 02:09:15 12° E 02:09:15 12° E visible
01 Sep 7.5 03:44:55 10° NNE 03:50:00 85° NNW 03:50:00 85° NNW visible
01 Sep 9.6 05:26:31 10° NNW 05:28:51 13° WNW 05:30:44 11° W visible
02 Sep 8.3 03:15:56 10° NNE 03:20:28 49° ENE 03:20:28 49° ENE visible
02 Sep 9.0 04:56:12 10° NNW 05:00:09 23° WNW 05:01:12 21° W visible
03 Sep 9.3 02:47:17 10° NE 02:50:55 27° ENE 02:50:55 27° ENE visible
03 Sep 8.2 04:26:33 10° N 04:31:19 38° WNW 04:31:40 38° WNW visible
04 Sep 10.0 02:19:18 10° NE 02:21:23 15° ENE 02:21:23 15° ENE visible
04 Sep 7.7 03:57:12 10° N 04:02:08 68° NW 04:02:08 68° NW visible
04 Sep 9.7 05:40:12 10° NW 05:40:54 10° NW 05:41:37 10° WNW visible
05 Sep 8.1 03:28:06 10° NNE 03:32:36 60° ENE 03:32:36 60° ENE visible
05 Sep 9.2 05:08:50 10° NNW 05:12:15 18° WNW 05:13:21 17° WNW visible
06 Sep 9.1 02:59:18 10° NNE 03:03:03 33° ENE 03:03:03 33° ENE visible
06 Sep 8.6 04:38:59 10° N 04:43:29 31° WNW 04:43:48 30° WNW visible
07 Sep 9.9 02:30:58 10° NE 02:33:31 19° ENE 02:33:31 19° ENE visible
07 Sep 7.9 04:09:31 10° N 04:14:16 53° WNW 04:14:16 53° WNW visible
08 Sep 7.9 03:40:19 10° NNE 03:44:44 64° NNE 03:44:44 64° NNE visible
08 Sep 9.4 05:21:37 10° NNW 05:24:20 15° WNW 05:25:28 14° WNW visible
09 Sep 8.8 03:11:23 10° NNE 03:15:11 39° ENE 03:15:11 39° ENE visible
09 Sep 8.9 04:51:29 10° N 04:55:37 25° WNW 04:55:56 24° WNW visible
10 Sep 9.7 02:42:49 10° NE 02:45:39 23° ENE 02:45:39 23° ENE visible
10 Sep 8.2 04:21:53 10° N 04:26:24 41° WNW 04:26:24 41° WNW visible
